Погода в Шадринске

Погода в Шадринске : погода сейчас, прогноз погоды и архив. Всё, что Вы хотите узнать о погоде в Шадринске!

Хотите узнать прогноз погоды в Шадринске? Тогда Вам сюда: Погода в Шадринске

Поиск расширенной информации на нашем сайте:

Полезная информация:

Другие новости

Новости СМИ2

Главная страница сайта

Новости сайта

03.07.2017

Напоминаем, что на нашем специализированном сайте Метеоцентр.Азия вы можете получить высокодетализированные автоматические прогнозы погоды по пунктам России, СНГ и мира в авиационном формате (включающие направление и скорость ветра, видимость, явления погоды, количество и форму облачности, нижнюю и верхнюю границу облачности).

Рекомендуем:

Погода в Шадринске - сегодня

Время (UTC), дата Ветер
(°,м/с) 
Видим.   Явления Облачность Т
(°С)
Тd
(°С)
f(%) Тe
(°С)
Pmin
(гПа)
dP
(гПа)
Po
(мм)
O2
(г/м3)
Тmin Tmax R s Состояние
почвы
12 15.07.19 120 (ЮВ) 6-12{12}  10 км    8/4 600 м кучево-дожд., средняя, верхняя 
[Cb cap|Ac trans|Ci sp]
+32.6 +11.2 27 +36  1001.9  -2  744  266           
15 15.07.19 110 (В) 4{12}  10 км    8/4 600 м кучево-дожд., средняя, верхняя 
[Cb cap|Ac trans|Ci sp]
+29.9 +13.3 36 +36  1000.1  -1.9  743  267    +33.1       
18 15.07.19 090 (В) 10 км    8/6 600 м кучево-дожд., средняя, верхняя 
[Cb cap|Ac trans|Ci sp]
+24.9 +16 58 +36  999.7  -0.6  742  271           
21 15.07.19 150 (ЮВ) 10 км    8/4 600 м кучево-дожд., верхняя 
[Cb cap|Ci ing]
+25 +14.6 52 +33  998.7  -1  741  271           
00 16.07.19 220 (ЮЗ) 10 км    6/4 600 м кучево-дожд., верхняя 
[Cb cap|Ci sp]
+18.9 +11.6 63 +24  1000.4  1.5  743  278           
03 16.07.19 220 (ЮЗ) 10 км    3/3 600 м кучево-дожд., верхняя 
[Cb cap|Ci sp]
+19.1 +11.4 61 +23  1001.6  1.1  743  278  +16.9        сухая 
06 16.07.19 240 (ЮЗ) 10 км    10/10 600 м кучево-дожд. 
[Cb cap]
+20.1 +10.8 55 +22  1003.1  1.6  745  277           
09 16.07.19 240 (ЮЗ) 10 км    10/10 600 м кучево-дожд. 
[Cb cap]
+21.3 +11.8 55 +25  1004.8  1.7  746  277           
12 16.07.19 240 (ЮЗ) 5{10}  10 км    10/10 600 м кучево-дожд. 
[Cb cap]
+19.2 +13.1 68 +26  1007.3  2.4  748  279           
15 16.07.19 270 (З) 4-10{10}  10 км    10/10 600 м кучево-дожд. 
[Cb cap]
+19.9 +12.3 62 +25  1008.3  748  279    +21.5       
18 16.07.19 280 (З) 4{10}  10 км    3/3 600 м кучево-дожд. 
[Cb cap]
+17.9 +11.6 67 +21  1009.4  749  281           
21 16.07.19 240 (ЮЗ) 10 км    3/0 верхняя 
[Ci sp]
+15.2 +11.3 78 +18  1011.1  1.6  750  284           
00 17.07.19 260 (З) 10 км    3/0 верхняя 
[Ci sp]
+14.3 +11.3 82 +18  1012.1  751  285           
03 17.07.19 290 (З) 10 км    6/0 верхняя 
[Ci sp]
+18.5 +13.1 71 +24  1013.2  1.2  752  281  +13.8        сухая 
06 17.07.19 280 (З) 10 км    6/3 600 м верхняя 
[Sc|Ci sp]
+23.4 +11.4 47 +26  1012.5  -0.5  752  277           
09 17.07.19 300 (СЗ) 10 км    3/3 600 м 
[Cu hum]
+26.3 +7.1 29 +26  1011.8  -0.6  751  275           
12 17.07.19 280 (З) 3{10}  10 км    3/3 600 м 
[Cu hum]
+27.3 +7 28 +27  1011.6  -0.2  751  274           
15 17.07.19 280 (З) 10 км    3/3 600 м верхняя 
[Sc|Ci sp]
+24.8 +8.1 34 +25  1011.8  0.1  751  276    +27.5       
18 17.07.19 тихо ()   10 км    4/4 600 м 
[Sc]
+16.2 +10.3 68 +18  1012.9  0.7  752  284           
21 17.07.19 тихо ()   10 км    4/4 600 м 
[Sc]
+12.6 +10 84 +14  1013.1  0.1  752  288           
00 18.07.19 230 (ЮЗ) 10 км    8/4 600 м верхняя 
[Sc|Ci sp]
+11.1 +9 87 +12  1013.2  0.1  752  290           
03 18.07.19 270 (З) 10 км    9/9 600 м кучево-дожд. 
[Cb cap]
+16.6 +11 69 +19  1013.4  0.4  752  284  +11        сухая 
06 18.07.19 220 (ЮЗ) 10 км    10/10 600 м кучево-дожд. 
[Cb cap]
+20.6 +13 62 +26  1013.4  0.2  752  279           
09 18.07.19 250 (З) 10 км    3/3 600 м верхняя 
[Sc|Ci sp]
+25.9 +10.4 38 +28  1012  -1.2  751  275           
12 18.07.19 240 (ЮЗ) 10 км    3/3 600 м 
[Cu hum]
+27.4 +10.5 35 +29  1011.1  -0.9  751  273           
Время (UTC), дата Ветер
(°,м/с) 
Видим.   Явления Облачность Т
(°С)
Тd
(°С)
f(%) Тe
(°С)
Pmin
(гПа)
dP
(гПа)
Po
(мм)
O2
(г/м3)
Тmin Tmax R s Состояние
почвы

Для получения пояснительной информации подведите курсор к названию столбца.

ПОГОДА в Шадринске - архив

Всё, что Вы хотите узнать о погоде в Шадринске - удобно и подробно!

Выберите нужную дату (начиная с 1 января 2018* года) и нажмите кнопку "Найти".
Будут отображены архивные сводки погоды по пункту Шадринск, начиная с указанной даты.


Отображать данные в формате CSV (для использования в таблицах Excel)


Внимание! Наш архив погоды предназначен исключительно для личного некоммерческого использования в познавательных целях. Если Вам необходимы официальные справки о состоянии погоды (для производственных, юридических, коммерческих и т.п. целей), обращайтесь в органы Росгидромета.

*Примечание: данная дата относится к архиву по метеостанциям СССР (Россия, СНГ, Балтия).
Архив по метеостанциям Зарубежной Европы и Азии (кроме Китая) хранится 10 дней, по другим регионам земного шара (Китай, Африка, Америка, Австралия, Океания) - 1 день.

Шадринск - район местоположения метеостанции


Название, широта, долгота, высота метеостанции:
Шадринск 56.1°ш. 63.6°д. 89 м над ур. моря [Российская Федерация]

Дополнительная информация

В oтличие oт бoльшинства пoгoдных сайтoв мы публикуем пoдрoбную метеoинфoрмацию в детальнoм прoфессиoнальнoм фoрмате.

Характеристики температуры и влажнoсти вoздуха измеряются на высoте 2 м в тени вдали oт зданий и деревьев.
Скoрoсть ветра измеряется на высoте 10 м (на урoвне рoста челoвека скoрoсть ветра ниже в 1.5-2 раза). Если метеoстанция нахoдится в гoрoде или в лесу, тo скoрoсть ветра занижена на 2-4 м/с пo сравнению с oткрытым местoм. Скoрoсть ветра над акватoриями крупных рек и oзёр, а также на вершинах хoлмoв на 2-5 м/с выше, чем в oбычных услoвиях.
Атмoсфернoе давление в разных тoчках местнoсти мoжет значительнo oтличаться oт давления на метеoстанции, в зависимoсти oт услoвий рельефа (при пoдъёме на 10 м давление пoнижается примернo на 1 мм рт.ст.).